EW9496 Weather Reports


Display with metric or nautical units.
time (UTC)temp
F
wind
direction
speed
MPH
gust
MPH
rain 1hr
in
rain 24hr
in
rain mn
in
humidity
%
barometer
mb
20260503211518 58 311 6.0 15.0 0.00 0.10 0.00 100 1017.4
20260503211009 58 311 7.0 15.0 0.00 0.10 0.00 100 1017.3
20260503210509 58 311 8.0 15.0 0.00 0.11 0.00 100 1017.3
20260503210022 58 311 7.0 13.0 0.00 0.11 0.00 100 1017.3
20260503205507 59 312 8.0 12.0 0.00 0.11 0.00 100 1017.2
20260503205010 59 311 5.0 14.0 0.00 0.12 0.00 100 1017.2
20260503204525 59 311 8.0 14.0 0.00 0.12 0.00 100 1017.2
20260503204010 59 311 7.0 13.0 0.00 0.13 0.00 100 1017.1
20260503203507 60 311 7.0 13.0 0.00 0.13 0.00 100 1017.1
20260503203029 62 310 4.0 9.0 0.00 0.13 0.00 100 1017.1
20260503202509 63 311 4.0 8.0 0.00 0.13 0.00 100 1017.1
20260503202012 63 313 4.0 9.0 0.00 0.13 0.00 100 1017.0
20260503201530 63 314 4.0 10.0 0.00 0.13 0.00 100 1017.0
20260503201011 63 313 6.0 11.0 0.00 0.13 0.00 100 1016.9
20260503200506 62 313 4.0 12.0 0.00 0.13 0.00 100 1017.0
20260503200027 62 314 6.0 12.0 0.00 0.13 0.00 100 1017.0
20260503195507 62 313 6.0 11.0 0.00 0.14 0.00 100 1017.1
20260503195007 62 314 6.0 10.0 0.00 0.14 0.00 100 1017.1
20260503194527 62 313 5.0 11.0 0.00 0.14 0.00 100 1017.2
20260503194009 62 313 7.0 13.0 0.00 0.14 0.00 100 1017.2
20260503193513 63 314 7.0 13.0 0.00 0.15 0.00 100 1017.4
20260503193024 63 313 8.0 12.0 0.00 0.15 0.00 100 1017.3
20260503192509 63 313 6.0 12.0 0.00 0.15 0.00 100 1017.4
20260503192015 63 313 7.0 12.0 0.00 0.15 0.00 100 1017.5
20260503191527 64 313 7.0 12.0 0.00 0.15 0.00 100 1017.5
20260503191009 64 313 7.0 12.0 0.00 0.15 0.00 100 1017.5
20260503190509 64 313 3.0 11.0 0.00 0.15 0.00 100 1017.6
20260503190029 63 314 5.0 11.0 0.00 0.15 0.00 100 1017.8
20260503185507 63 314 5.0 10.0 0.00 0.15 0.00 100 1017.7
20260503185009 64 313 5.0 9.0 0.00 0.15 0.00 100 1017.9
20260503184526 64 315 4.0 9.0 0.00 0.15 0.00 100 1017.9
20260503184006 64 315 3.0 9.0 0.00 0.15 0.00 100 1017.9
20260503183515 64 313 4.0 10.0 0.00 0.15 0.00 100 1018.0
20260503183034 64 314 5.0 10.0 0.00 0.15 0.00 100 1018.0
20260503182509 64 315 2.0 10.0 0.00 0.15 0.00 100 1018.0
20260503182009 64 315 4.0 10.0 0.00 0.15 0.00 100 1018.0
20260503181547 64 315 4.0 9.0 0.00 0.16 0.00 100 1017.9
20260503181008 64 313 4.0 10.0 0.00 0.16 0.00 100 1017.9
20260503180504 64 313 2.0 10.0 0.00 0.16 0.00 100 1018.0
20260503180012 63 313 2.0 8.0 0.00 0.16 0.00 100 1018.0
20260503175504 63 314 5.0 9.0 0.00 0.16 0.00 100 1018.0
20260503175009 63 315 4.0 11.0 0.00 0.16 0.00 100 1018.0
20260503174519 63 314 7.0 11.0 0.00 0.16 0.00 100 1018.1
20260503174007 63 315 6.0 11.0 0.00 0.16 0.00 100 1018.2
20260503173509 62 315 5.0 14.0 0.00 0.17 0.00 100 1018.1
20260503173040 62 314 4.0 14.0 0.00 0.17 0.00 100 1018.2
20260503172502 62 314 7.0 12.0 0.00 0.17 0.00 100 1018.3
20260503172002 62 315 4.0 12.0 0.00 0.18 0.00 100 1018.2
20260503171504 62 315 6.0 12.0 0.00 0.18 0.00 100 1018.2
20260503171004 62 315 4.0 12.0 0.00 0.18 0.00 100 1018.2
20260503170504 62 314 6.0 14.0 0.00 0.18 0.00 100 1018.2
20260503151010 62 309 6.0 15.0 0.00 0.19 0.00 100 1018.1
20260503150517 62 315 8.0 15.0 0.00 0.19 0.00 100 1018.0
20260503131004 59 315 5.0 13.0 0.00 0.20 0.00 100 1016.9
20260503130508 59 315 8.0 13.0 0.00 0.21 0.00 100 1016.9
20260503110504 56 315 8.0 16.0 0.00 0.30 0.00 100 1015.4
20260503090502 56 315 11.0 18.0 0.00 0.36 0.00 100 1013.8
20260503081522 56 316 12.0 22.0 0.00 0.36 0.00 100 1013.3
20260503081008 56 315 15.0 22.0 0.00 0.36 0.00 100 1013.2
20260503080511 56 315 12.0 21.0 0.00 0.36 0.00 100 1013.1
20260503072507 56 315 13.0 21.0 0.00 0.37 0.00 100 1012.8
20260503072005 56 316 11.0 20.0 0.00 0.37 0.00 100 1012.8
20260503071526 56 316 12.0 20.0 0.00 0.37 0.00 100 1012.7
20260503071005 56 316 11.0 20.0 0.00 0.37 0.00 100 1012.6
20260503070508 56 315 12.0 20.0 0.00 0.37 0.00 100 1012.5
20260503055009 56 316 8.0 17.0 0.00 0.37 0.00 100 1011.6
20260503054525 56 316 11.0 17.0 0.00 0.37 0.00 100 1011.7
20260503054011 56 360 10.0 18.0 0.00 0.37 0.00 100 1011.7
20260503053508 56 316 6.0 19.0 0.00 0.37 0.00 100 1011.6
20260503053035 55 317 10.0 19.0 0.00 0.37 0.00 100 1011.5
20260503052503 55 360 12.0 19.0 0.00 0.37 0.00 100 1011.6
20260503052005 55 317 9.0 23.0 0.00 0.37 0.00 100 1011.6
20260503051514 55 316 11.0 23.0 0.00 0.37 0.00 100 1011.8
20260503051017 55 317 12.0 23.0 0.00 0.37 0.00 100 1011.9
20260503050506 55 316 10.0 19.0 0.00 0.37 0.00 100 1011.9
20260503050016 55 306 11.0 19.0 0.00 0.37 0.00 100 1011.8
20260503045510 55 316 9.0 17.0 0.00 0.37 0.00 100 1011.9
20260503045010 55 315 10.0 17.0 0.00 0.37 0.00 100 1012.0
20260503044556 55 316 9.0 19.0 0.00 0.37 0.00 100 1012.0
20260503044008 55 316 10.0 21.0 0.00 0.37 0.00 100 1011.9
20260503043508 55 316 11.0 21.0 0.00 0.37 0.00 100 1011.9
20260503043025 55 315 11.0 23.0 0.00 0.37 0.00 100 1011.8
20260503042508 55 315 12.0 24.0 0.00 0.37 0.00 100 1011.9
20260503042011 55 315 12.0 24.0 0.00 0.37 0.00 100 1011.8
20260503041527 55 316 12.0 21.0 0.00 0.37 0.00 100 1011.8
20260503041003 55 315 13.0 21.0 0.00 0.37 0.00 100 1011.7
20260503040511 55 315 9.0 21.0 0.00 0.37 0.00 100 1011.6
20260503040018 55 316 11.0 21.0 0.00 0.37 0.00 100 1011.6
20260503035506 55 315 9.0 21.0 0.00 0.37 0.37 100 1011.5
20260503035006 55 316 11.0 21.0 0.00 0.37 0.37 100 1011.5
20260503034518 55 315 9.0 20.0 0.00 0.37 0.37 100 1011.6
20260503034010 55 315 11.0 20.0 0.00 0.37 0.37 100 1011.5
20260503033507 55 315 10.0 20.0 0.00 0.37 0.37 100 1011.4
20260503033026 55 315 8.0 18.0 0.00 0.37 0.37 100 1011.3
20260503032509 55 360 12.0 20.0 0.00 0.37 0.37 100 1011.3
20260503032012 55 316 12.0 20.0 0.00 0.37 0.37 100 1011.2
20260503031527 55 316 9.0 20.0 0.00 0.37 0.37 100 1011.2
20260503031010 55 315 10.0 20.0 0.00 0.37 0.37 100 1011.1
20260503030511 55 315 10.0 19.0 0.00 0.37 0.37 100 1011.1
20260503030032 55 316 10.0 19.0 0.00 0.37 0.37 100 1011.1
20260503025510 55 314 11.0 19.0 0.00 0.37 0.37 100 1011.1
20260503025007 55 315 10.0 20.0 0.00 0.37 0.37 100 1011.0
20260503024516 54 316 11.0 20.0 0.00 0.37 0.37 100 1011.1
20260503024009 54 360 10.0 19.0 0.00 0.37 0.37 100 1011.0
20260503023505 54 360 11.0 24.0 0.00 0.37 0.37 100 1010.8
20260503023019 54 315 10.0 24.0 0.00 0.37 0.37 100 1011.1
20260503022506 54 316 13.0 24.0 0.00 0.37 0.37 100 1011.2
20260503022013 54 360 9.0 20.0 0.00 0.37 0.37 100 1011.3
20260503021524 54 316 10.0 23.0 0.00 0.37 0.37 100 1011.2
20260503021011 53 360 14.0 24.0 0.01 0.37 0.37 100 1011.2
20260503020512 53 316 12.0 24.0 0.01 0.37 0.37 100 1011.2
20260503020034 53 360 12.0 22.0 0.01 0.37 0.37 100 1011.4
20260503015512 53 316 10.0 21.0 0.01 0.37 0.37 100 1011.7
20260503015012 53 360 10.0 21.0 0.01 0.37 0.37 100 1011.6
20260503014526 53 315 11.0 21.0 0.01 0.37 0.37 100 1011.6
20260503014006 53 360 9.0 22.0 0.01 0.37 0.37 100 1011.4
20260503013508 52 360 11.0 22.0 0.02 0.37 0.37 100 1011.4
20260503013020 52 316 9.0 21.0 0.02 0.37 0.37 100 1011.6
20260503012506 52 315 11.0 23.0 0.02 0.37 0.37 100 1011.6
20260503012015 52 316 13.0 23.0 0.02 0.37 0.37 100 1011.4
20260503011525 52 360 15.0 24.0 0.03 0.37 0.37 100 1011.0
20260503011007 52 360 12.0 24.0 0.02 0.36 0.36 100 1010.9
20260503010510 52 316 9.0 22.0 0.02 0.36 0.36 100 1011.1
20260503010024 52 314 12.0 22.0 0.02 0.36 0.36 100 1011.0
20260503005509 52 316 12.0 22.0 0.02 0.36 0.36 100 1011.0
20260503005012 53 360 12.0 22.0 0.02 0.36 0.36 100 1010.7
20260503004526 53 360 9.0 23.0 0.03 0.36 0.36 100 1010.8
20260503004008 53 314 13.0 23.0 0.03 0.36 0.36 100 1010.8
20260503003513 53 360 10.0 23.0 0.02 0.35 0.35 100 1011.0
20260503003032 53 314 13.0 23.0 0.03 0.35 0.35 100 1010.5
20260503002506 53 316 12.0 20.0 0.03 0.35 0.35 100 1009.9
20260503002006 53 316 11.0 24.0 0.03 0.35 0.35 100 1010.0
20260503001520 53 315 14.0 24.0 0.02 0.34 0.34 100 1010.5
20260503001006 53 315 14.0 23.0 0.03 0.34 0.34 100 1010.6
20260503000502 53 315 12.0 20.0 0.03 0.34 0.34 100 1010.8
20260503000013 53 360 12.0 22.0 0.03 0.34 0.34 100 1010.8
20260502235502 53 314 9.0 22.0 0.03 0.34 0.34 100 1010.8
20260502235003 53 360 14.0 21.0 0.03 0.34 0.34 100 1010.5
20260502234509 53 313 12.0 22.0 0.03 0.33 0.33 100 1010.5
20260502234004 53 360 12.0 23.0 0.03 0.33 0.33 100 1010.7
20260502233504 53 360 10.0 24.0 0.03 0.33 0.33 100 1010.4
20260502233012 54 360 13.0 24.0 0.02 0.32 0.32 100 1010.2
20260502232503 54 315 11.0 22.0 0.02 0.32 0.32 100 1010.3
20260502232006 54 360 12.0 24.0 0.03 0.32 0.32 100 1010.2
20260502231526 54 360 13.0 24.0 0.03 0.32 0.32 100 1010.1
20260502231008 54 315 11.0 24.0 0.02 0.31 0.31 100 1010.1
20260502230507 54 315 10.0 18.0 0.02 0.31 0.31 100 1009.8
20260502230023 55 315 7.0 20.0 0.02 0.31 0.31 100 1009.6
20260502225503 54 313 13.0 20.0 0.02 0.31 0.31 100 1009.4
20260502225004 54 316 8.0 16.0 0.03 0.31 0.31 100 1009.3
20260502224507 54 360 7.0 17.0 0.02 0.30 0.30 100 1009.5
20260502224003 54 360 5.0 17.0 0.02 0.30 0.30 100 1009.5
20260502223503 54 360 7.0 15.0 0.03 0.30 0.30 100 1009.4
20260502223024 55 360 8.0 18.0 0.03 0.30 0.30 100 1009.2
20260502222503 55 315 9.0 20.0 0.03 0.30 0.30 100 1009.2
20260502222005 55 360 9.0 20.0 0.02 0.29 0.29 100 1009.3
20260502221513 55 360 9.0 19.0 0.02 0.29 0.29 100 1009.4
20260502221010 55 360 8.0 18.0 0.02 0.29 0.29 100 1009.2
20260502220508 55 360 8.0 17.0 0.03 0.29 0.29 100 1009.2
20260502220018 55 360 6.0 18.0 0.03 0.29 0.29 100 1009.2
20260502215507 55 360 8.0 18.0 0.03 0.29 0.29 100 1009.6
20260502215008 55 315 8.0 17.0 0.03 0.28 0.28 100 1009.7
20260502214524 55 360 8.0 17.0 0.03 0.28 0.28 100 1009.5
20260502214009 55 360 8.0 17.0 0.04 0.28 0.28 100 1009.3
20260502213503 55 360 8.0 19.0 0.03 0.27 0.27 100 1009.6
20260502213007 55 316 10.0 23.0 0.03 0.27 0.27 100 1009.8
20260502212503 55 360 8.0 23.0 0.03 0.27 0.27 100 1009.6
20260502212005 55 360 6.0 18.0 0.03 0.27 0.27 100 1009.1